{"data":{"norad_id":58245,"epoch":"2026-05-25T04:28:27.533856Z","epoch_age_seconds":52242,"freshness":"FRESH","line1":"1 58245U 23171R   26145.18642979  .00002981  00000+0  11786-3 0  9997","line2":"2 58245  43.0052 213.2179 0002275 277.1728  82.8865 15.27569849141431","mean_motion":15.27569849,"eccentricity":0.0002275,"inclination_deg":43.0052,"raan_deg":213.2179,"arg_perigee_deg":277.1728,"mean_anomaly_deg":82.8865,"bstar":0.00011786,"rev_number":14143,"period_min":94.267375134608,"perigee_km":481.51856520186,"apogee_km":484.6404187057,"semimajor_km":6861.2164919538,"source":"CELESTRAK","updated_at":"2026-05-25T13:38:18.582379Z"}}